Regional Weather Roundup
Issued by NWS

Home | Current Version | Previous Version | Graphics & Text | Print | Product List | Glossary On
Versions: 1 2 3 4 5 6 7 8 9 10 11 12 13 14 15 16 17 18 19 20 21 22 23 24 25 26 27 28 29 30 31 32 33 34 35 36 37 38 39 40 41 42 43 44 45 46 47 48 49 50
000
ASUS45 KSLC 300810
RWRUT

UTAH REGIONAL WEATHER ROUNDUP
NATIONAL WEATHER SERVICE SALT LAKE CITY UT
200 AM MDT SUN APR 30 2017

UTZ001>011-023>025-300900-

NORTHERN UTAH

CITY           SKY/WX    TMP DP  RH WIND       PRES   REMARKS
BRIGHAM CITY   CLEAR     42  33  72 CALM      30.21S
HILL AFB       CLEAR     39  25  56 E10       30.20S WCI  32
LOGAN          CLEAR     37  31  78 CALM      30.19F
OGDEN          CLEAR     39  27  62 S8        30.20S WCI  33
SALT LAKE CITY PTCLDY    42  29  59 SE7       30.19F
TOOELE VALLEY  PTCLDY    34  30  86 S9        30.20S WCI  26
WENDOVER       CLEAR     45  31  58 CALM      30.20F
WEST JORDAN    PTCLDY    38  34  84 SW3       30.20F

$$

UTZ011>015-024>027-300900-

CENTRAL/NORTHEAST UTAH

CITY           SKY/WX    TMP DP  RH WIND       PRES   REMARKS
PROVO AIRPORT  PTCLDY    35  28  75 S8        30.21F WCI  29
MOAB/CANYONLAN CLEAR     42  15  33 N6        30.17R
DELTA          CLEAR     36  23  60 NE5       30.21S WCI  32
PRICE          CLEAR     33  17  51 N12       30.20F WCI  24
RICHFIELD      CLEAR     30  23  74 CALM      30.26R
ROOSEVELT      CLEAR     32  21  64 SW5       30.22F WCI  27
VERNAL         CLEAR     28  19  69 W3        30.19F

$$

UTZ013>016-019>022-027-300900-

SOUTHERN UTAH

CITY           SKY/WX    TMP DP  RH WIND       PRES   REMARKS
BRYCE CANYON   CLEAR     23  13  65 SW3       30.23S
CEDAR CITY     CLEAR     33  17  51 N8        30.21R WCI  26
MILFORD        CLEAR     35  18  49 E3        30.22S
ST GEORGE      SUNNY     58  20  22 N7        30.16S
HANKSVILLE     CLEAR     41  18  38 NE9       30.21S
KANAB          CLEAR     45  16  31 NE5       30.24R
BLANDING       CLEAR     40  14  35 W10G17    30.18F WCI  33

$$

REGIONAL REPORTS     COLORADO/ARIZONA

CITY           SKY/WX    TMP DP  RH WIND       PRES   REMARKS
CRAIG, CO      CLEAR     24  18  77 CALM      30.17F
GRAND JUNCTION CLEAR     34  17  50 CALM      30.16F
RIFLE, CO      CLEAR     36  21  54 SW3       30.16S
MONTROSE, CO   CLOUDY    37  21  52 NW15      30.16R WCI  28
CORTEZ, CO     CLEAR     36  21  54 N10       30.11R WCI  28
COLORADO CITY    N/A     39  19  45 SE6       30.23R WCI  35
PAGE, AZ       CLEAR     52  20  28 NW8       30.15R
GRAND CANYON   CLEAR     27  12  53 NE3       30.21R
KINGMAN, AZ    CLEAR     42  18  37 E6        30.15R
FLAGSTAFF, AZ  CLEAR     32  12  43 NE8       30.19S WCI  25

$$

REGIONAL REPORTS    NEVADA/IDAHO/WYOMING

CITY           SKY/WX    TMP DP  RH WIND       PRES   REMARKS
LAS VEGAS, NV  CLEAR     66  13  12 N10       30.12R
ELY, NY        PTCLDY    28  18  66 S12       30.25S WCI  18
ELKO, NV       CLEAR     35  29  78 W3        30.22S
POCATELLO, ID  CLEAR     40  24  53 S8        30.15F WCI  34
BURLEY, ID     CLEAR     40  27  59 SW10      30.14F WCI  33
FORT BRIDGER,    N/A     32  21  64 SW12      30.22F WCI  23
EVANSTON, WY   CLEAR     27  21  78 SW10      30.21F WCI  17
ROCK SPRINGS,  CLEAR     30  19  63 SW5       30.17F WCI  25
KEMMERER, WY     N/A     30  23  74 NW5       30.20F WCI  25

$$



USA.gov is the U.S. government's official web portal to all federal, state and local government web resources and services.